Temp
9 10 10 10 9 8 7 7 7 6 6 5 6 6 6 5 5 5 5 5 5 5 5 5 5 5 5 5 5 5 5 5 5 5 5 5 5 5 5 4 4 4 4
7 7 8 9 9 8 7 7 7 6 6 5 5 5 5 5 5 5 5 4 5 4 5 5 5 4 4 4 4 4 4 5 5 5 5 5 5 4 4 4 4 4 4
6 6 6 6 6 7 7 7 6 6 6 5 5 5 5 4 4 4 4 4 4 4 4 4 4 4 4 4 4 4 4 4 4 4 4 4 5 4 4 4 4 4 4
5 5 6 6 6 6 6 6 6 5 5 5 5 5 3 4 4 4 4 4 4 4 4 4 4 4 4 4 4 3 3 3 4 4 4 4 4 4 4 3 4 4 4
2 3 4 4 5 5 5 5 4 5 4 4 4 4 4 2 2 4 4 4 4 3 4 4 3 4 3 3 3 3 3 3 3 3 3 4 4 4 4 3 4 4 4
1 1 1 1 2 3 4 4 4 2 2 3 3 3 3 3 4 4 3 3 2 3 3 3 3 3 3 3 3 3 2 2 2 2 2 3 3 4 4 4 4 3 4
-1 -1 -0 -0 0 0 0 1 0 1 1 2 3 3 3 3 3 3 3 3 3 2 3 3 3 3 3 3 3 2 2 2 2 2 2 2 3 3 4 4 4 3 3
-1 -1 -2 -1 -1 -1 -1 -1 -1 0 -0 -0 1 1 2 3 2 2 3 3 2 3 3 3 2 2 3 2 2 2 2 2 2 2 2 2 3 3 3 4 4 4 3
-2 -2 -2 -2 -2 -2 -2 -1 -1 -1 -1 -0 0 1 0 1 1 2 2 2 3 3 2 2 2 2 2 2 1 2 2 1 1 1 2 2 3 3 4 3 3 3 3
-3 -3 -3 -3 -3 -2 -2 -2 -2 -2 -1 -1 -0 -0 -1 -1 0 1 1 1 2 2 1 2 1 1 2 1 1 1 2 2 1 1 1 2 3 4 4 3 3 3 3
-5 -4 -4 -4 -3 -3 -3 -2 -3 -2 -2 -3 -2 -1 -0 -1 -0 1 -0 2 1 1 1 1 1 1 1 1 1 1 1 1 1 1 1 2 3 3 4 4 3 3 3
-5 -5 -4 -4 -4 -4 -3 -3 -3 -3 -3 -3 -3 -2 -3 -2 -2 -1 -0 -1 -0 0 1 0 0 0 1 0 0 -0 0 0 1 1 2 2 2 3 3 4 4 3 3
-6 -6 -5 -5 -4 -4 -4 -4 -3 -3 -3 -3 -3 -3 -2 -3 -3 -2 -1 -1 -1 -1 -1 0 1 1 0 0 0 0 0 0 1 1 2 1 2 2 3 3 4 3 3
-6 -5 -5 -6 -5 -5 -5 -4 -4 -3 -3 -3 -3 -2 -3 -3 -3 -3 -2 -2 -2 -2 -1 -1 -0 1 -0 -0 -1 0 1 0 1 1 2 1 1 2 3 3 3 4 3
-6 -5 -5 -5 -5 -5 -5 -5 -4 -4 -3 -3 -2 -2 -2 -2 -2 -3 -3 -3 -2 -2 -3 -2 -1 -1 -0 -1 -1 -1 0 1 1 1 1 1 1 1 2 3 3 3 3
-6 -6 -6 -5 -5 -5 -5 -5 -5 -4 -4 -3 -3 -3 -2 -2 -2 -2 -3 -4 -4 -3 -3 -2 -1 -1 -0 -0 -0 -0 -0 0 0 0 1 1 1 1 2 3 3 3 3
-6 -6 -6 -6 -5 -5 -5 -5 -4 -4 -4 -4 -4 -3 -3 -2 -2 -2 -2 -2 -2 -3 -2 -2 -2 -1 -1 -1 0 0 0 1 1 1 0 1 1 1 2 2 3 3 3
-6 -6 -6 -6 -6 -6 -5 -5 -4 -4 -4 -4 -4 -4 -4 -3 -3 -2 -2 -2 -2 -1 -1 -1 -1 -1 -1 -0 0 0 1 1 1 1 1 1 2 2 2 2 3 3 3
-6 -6 -6 -6 -6 -6 -6 -5 -5 -5 -4 -4 -4 -3 -3 -3 -3 -3 -3 -2 -2 -1 -1 -1 -0 -0 -0 -1 -0 0 0 1 1 1 1 2 2 2 2 2 2 3 3
-6 -6 -6 -6 -6 -6 -6 -5 -5 -5 -5 -4 -4 -4 -4 -4 -4 -3 -3 -3 -2 -2 -2 -2 -2 -1 -1 -1 -1 -0 0 0 1 1 1 1 2 2 2 2 2 2 3
-5 -5 -5 -5 -5 -5 -5 -5 -5 -5 -5 -5 -5 -5 -4 -4 -4 -4 -4 -4 -3 -3 -3 -2 -2 -3 -2 -2 -1 -1 -0 0 1 1 1 1 1 2 2 2 2 2 2
-5 -5 -5 -5 -5 -4 -4 -4 -4 -4 -5 -5 -5 -5 -5 -5 -3 -3 -3 -3 -3 -3 -3 -3 -3 -3 -3 -3 -2 -2 -1 -0 1 1 1 1 2 2 2 1 1 1 2
-4 -4 -4 -4 -4 -4 -4 -4 -4 -3 -4 -4 -4 -4 -5 -5 -4 -4 -3 -3 -3 -3 -3 -3 -4 -4 -4 -4 -3 -3 -2 -1 0 1 1 1 2 1 1 1 0 1 1
-4 -4 -3 -3 -3 -3 -3 -3 -3 -3 -3 -3 -3 -4 -3 -3 -4 -4 -4 -4 -4 -3 -3 -3 -4 -4 -5 -4 -4 -2 -2 -1 -0 1 1 1 1 1 1 -0 -1 -1 1
-5 -5 -4 -4 -3 -3 -3 -3 -3 -2 -3 -3 -2 -3 -3 -3 -3 -3 -3 -3 -4 -4 -4 -4 -5 -4 -4 -4 -5 -3 -1 -0 0 0 0 0 0 0 -0 -0 -1 -2 0
-5 -5 -5 -5 -4 -4 -3 -3 -3 -3 -3 -3 -2 -3 -4 -3 -3 -3 -4 -3 -3 -4 -4 -4 -4 -5 -4 -4 -4 -4 -3 -2 -2 -2 -2 -3 -2 -2 -2 -1 -2 -1 -0
Height
3107 3107 3108 3111 3112 3117 3121 3125 3128 3130 3133 3137 3141 3143 3145 3146 3147 3148 3149 3150 3152 3152 3153 3153 3154 3155 3155 3156 3156 3155 3153 3152 3152 3151 3150 3148 3147 3146 3145 3144 3143 3142 3141
3100 3100 3100 3100 3101 3105 3109 3113 3117 3119 3122 3125 3129 3131 3135 3139 3141 3142 3142 3144 3145 3146 3147 3147 3148 3148 3149 3150 3151 3152 3151 3149 3148 3147 3147 3145 3144 3143 3142 3142 3141 3140 3138
3092 3092 3092 3092 3092 3094 3096 3100 3104 3108 3112 3113 3115 3119 3122 3125 3129 3133 3134 3135 3137 3139 3141 3141 3141 3142 3143 3145 3145 3146 3146 3145 3144 3144 3144 3142 3140 3139 3139 3138 3138 3138 3136
3079 3081 3082 3082 3083 3085 3085 3088 3091 3095 3098 3101 3103 3105 3107 3111 3113 3117 3122 3123 3125 3128 3130 3134 3135 3135 3137 3138 3139 3140 3141 3141 3141 3140 3139 3138 3137 3136 3135 3135 3135 3135 3134
3069 3069 3068 3069 3070 3071 3072 3075 3078 3081 3083 3086 3090 3092 3095 3092 3096 3089 3097 3107 3111 3111 3120 3122 3126 3127 3129 3131 3133 3134 3134 3135 3136 3135 3135 3135 3133 3133 3132 3131 3132 3132 3132
3058 3058 3058 3058 3057 3057 3059 3060 3064 3067 3069 3071 3073 3077 3082 3085 3087 3087 3092 3094 3093 3079 3105 3110 3117 3119 3121 3124 3126 3127 3128 3128 3130 3131 3130 3130 3130 3129 3128 3128 3128 3128 3129
3049 3048 3046 3046 3046 3046 3046 3047 3049 3051 3055 3058 3060 3063 3067 3072 3075 3076 3078 3084 3087 3086 3095 3101 3107 3109 3112 3116 3119 3120 3120 3122 3122 3124 3125 3126 3126 3125 3124 3124 3124 3124 3125
3038 3037 3036 3035 3034 3034 3035 3036 3038 3039 3040 3041 3044 3049 3052 3054 3061 3065 3067 3071 3076 3082 3088 3092 3097 3102 3104 3109 3111 3112 3113 3114 3115 3116 3118 3119 3121 3120 3120 3119 3120 3120 3122
3025 3024 3023 3023 3023 3023 3023 3022 3024 3026 3027 3028 3030 3034 3037 3041 3041 3048 3055 3059 3065 3070 3076 3080 3087 3093 3098 3101 3102 3105 3106 3107 3108 3109 3111 3113 3116 3115 3115 3115 3115 3116 3117
3011 3009 3008 3007 3008 3009 3010 3010 3011 3011 3012 3015 3019 3023 3024 3028 3034 3034 3035 3042 3050 3056 3065 3071 3076 3083 3087 3092 3094 3097 3098 3100 3101 3102 3104 3106 3110 3111 3111 3110 3110 3111 3113
2993 2992 2992 2992 2992 2993 2995 2997 2998 3000 3000 3001 3004 3008 3011 3015 3021 3023 3025 3034 3033 3048 3054 3060 3064 3072 3076 3081 3085 3087 3091 3093 3094 3094 3097 3100 3104 3106 3107 3106 3106 3107 3108
2975 2974 2974 2975 2975 2977 2977 2980 2984 2987 2988 2990 2993 2995 2998 3002 3006 3012 3014 3021 3028 3034 3041 3047 3053 3058 3065 3070 3073 3077 3081 3084 3084 3087 3089 3094 3097 3100 3101 3102 3102 3102 3102
2958 2956 2956 2955 2957 2958 2960 2963 2966 2971 2975 2978 2980 2984 2988 2990 2996 2999 3004 3006 3013 3018 3026 3033 3042 3047 3052 3058 3062 3067 3069 3072 3075 3078 3083 3088 3090 3092 3094 3096 3097 3098 3099
2941 2941 2941 2941 2941 2942 2944 2946 2949 2954 2959 2963 2967 2971 2975 2980 2984 2990 2993 2997 3002 3007 3014 3021 3028 3035 3039 3044 3049 3053 3055 3062 3066 3069 3074 3079 3081 3084 3087 3089 3091 3093 3094
2925 2924 2924 2924 2926 2928 2929 2931 2934 2937 2942 2947 2952 2956 2960 2965 2972 2977 2981 2986 2991 2996 3001 3006 3013 3019 3025 3029 3036 3040 3043 3049 3054 3060 3065 3069 3072 3075 3079 3081 3083 3086 3088
2909 2908 2908 2908 2910 2911 2913 2917 2920 2923 2927 2931 2936 2940 2945 2950 2955 2961 2969 2974 2977 2982 2985 2990 2997 3003 3010 3017 3022 3029 3032 3038 3042 3049 3054 3058 3062 3065 3069 3072 3074 3079 3082
2897 2896 2894 2893 2894 2897 2898 2900 2903 2909 2912 2916 2920 2925 2929 2935 2939 2944 2950 2957 2963 2968 2971 2977 2982 2988 2996 3003 3009 3015 3021 3026 3033 3037 3042 3047 3052 3054 3058 3063 3065 3069 3074
2888 2886 2884 2883 2882 2883 2884 2886 2889 2892 2896 2901 2906 2909 2913 2918 2924 2928 2934 2939 2944 2950 2956 2961 2966 2973 2980 2986 2993 3000 3007 3013 3019 3025 3029 3034 3040 3044 3047 3053 3056 3060 3066
2881 2878 2875 2874 2873 2873 2873 2874 2877 2879 2882 2886 2890 2894 2899 2903 2907 2912 2916 2918 2924 2931 2938 2945 2951 2957 2964 2971 2979 2985 2990 2998 3006 3011 3016 3021 3027 3032 3037 3043 3048 3050 3055
2875 2872 2868 2866 2865 2865 2865 2865 2866 2868 2870 2873 2876 2880 2884 2887 2889 2894 2898 2902 2907 2914 2922 2928 2934 2941 2947 2955 2963 2971 2977 2984 2990 2998 3004 3009 3015 3021 3026 3031 3037 3042 3046
2871 2867 2863 2860 2858 2857 2857 2858 2859 2860 2861 2863 2865 2867 2870 2872 2876 2880 2884 2888 2893 2899 2906 2912 2917 2923 2930 2938 2945 2954 2963 2970 2976 2984 2991 2996 3003 3009 3015 3020 3026 3033 3037
2869 2864 2860 2856 2853 2852 2852 2852 2853 2854 2855 2856 2857 2858 2859 2859 2862 2866 2871 2876 2880 2885 2889 2895 2900 2907 2913 2921 2930 2938 2945 2953 2961 2969 2976 2983 2990 2997 3004 3010 3015 3023 3028
2867 2863 2860 2856 2853 2852 2851 2851 2851 2851 2851 2851 2851 2851 2851 2853 2855 2857 2860 2864 2868 2872 2877 2881 2886 2892 2898 2905 2914 2922 2929 2937 2947 2955 2964 2972 2977 2985 2993 3000 3006 3010 3018
2868 2863 2860 2857 2854 2851 2850 2849 2848 2847 2847 2847 2846 2847 2848 2849 2851 2853 2856 2859 2861 2865 2867 2871 2876 2881 2887 2892 2899 2907 2916 2925 2934 2944 2952 2960 2966 2974 2982 2991 2998 3001 3009
2868 2863 2859 2856 2853 2850 2848 2846 2844 2843 2842 2841 2840 2841 2842 2843 2845 2847 2849 2851 2853 2856 2860 2862 2866 2871 2877 2883 2888 2896 2905 2914 2924 2933 2941 2948 2955 2963 2971 2980 2989 2994 2999
2870 2864 2858 2854 2850 2847 2843 2841 2838 2837 2836 2835 2835 2835 2836 2837 2839 2840 2841 2844 2846 2848 2852 2856 2860 2863 2868 2874 2881 2888 2896 2905 2913 2922 2930 2938 2946 2954 2962 2971 2978 2984 2991
Wind_Speed
27 34 39 39 40 41 41 39 35 33 34 33 32 33 32 30 30 29 27 26 25 24 21 17 13 12 12 12 14 15 16 16 15 15 15 13 12 14 13 13 13 15 14
30 32 33 41 43 45 45 43 40 40 40 39 41 40 38 36 35 36 35 33 31 29 27 24 19 17 16 16 16 17 17 18 17 16 15 14 13 14 15 15 13 14 16
39 35 36 37 41 48 49 49 48 47 45 46 47 47 46 43 43 42 42 40 38 36 32 30 25 22 20 21 20 20 20 20 20 18 16 15 13 14 15 15 14 14 14
45 46 47 44 42 43 48 49 49 47 48 52 54 54 57 53 53 50 49 50 47 44 39 33 29 26 25 24 24 24 23 23 22 21 17 16 15 13 15 15 14 14 13
35 39 41 44 44 45 46 50 45 49 48 48 52 54 54 62 71 48 62 55 54 44 43 35 32 30 28 27 28 28 27 26 23 23 20 16 15 14 16 15 15 13 12
36 36 37 38 39 40 43 47 54 50 44 52 51 51 52 53 57 62 61 58 66 46 42 37 32 33 33 30 30 30 30 28 26 24 21 18 17 17 17 16 17 14 11
35 36 39 41 42 42 41 40 36 40 50 56 54 49 58 63 58 63 63 57 46 40 39 38 39 38 34 31 32 33 31 30 29 24 21 20 18 19 19 16 17 18 12
40 40 41 40 39 41 46 44 42 39 41 42 44 49 43 57 59 57 55 56 49 47 45 41 43 38 35 34 33 35 33 30 28 28 24 21 19 20 20 18 18 17 15
43 43 44 46 44 40 39 43 48 50 48 44 39 40 48 37 45 53 61 56 54 50 48 45 41 37 33 35 34 32 31 30 30 28 27 23 20 21 20 19 17 18 15
44 44 44 46 47 47 43 42 41 41 46 52 57 51 47 40 49 39 20 38 52 46 46 44 40 39 37 40 33 32 31 27 26 26 27 25 21 21 20 18 18 16 15
47 47 48 48 46 46 47 45 43 39 41 42 41 46 50 45 45 53 41 40 33 46 47 51 47 43 37 42 37 34 29 28 28 29 28 26 24 22 21 19 17 17 15
50 52 53 52 50 48 48 48 45 44 41 38 37 39 42 44 43 46 45 57 51 47 59 50 44 40 41 38 37 36 34 34 34 33 31 27 26 24 23 21 20 19 18
45 44 46 47 48 48 48 47 48 47 46 42 38 41 40 39 39 34 49 50 50 40 45 44 47 47 42 42 48 41 39 40 38 36 34 30 29 27 25 23 22 21 20
44 43 42 41 40 40 43 45 47 47 47 48 45 45 42 43 44 48 41 40 40 43 47 51 52 50 41 48 49 46 44 44 41 40 38 35 35 31 27 27 25 24 23
44 44 43 43 42 41 41 41 45 47 47 47 47 46 47 45 44 44 44 45 46 49 48 49 51 54 58 53 55 50 48 48 48 45 41 38 37 36 32 28 30 28 26
35 36 40 41 41 42 43 43 42 42 44 46 47 49 48 48 48 47 47 46 46 48 48 50 50 50 51 50 47 47 47 49 45 43 42 39 39 37 36 33 32 32 29
30 28 30 33 37 38 39 42 43 41 42 42 43 45 49 50 51 51 50 49 49 50 50 51 52 52 52 52 52 48 47 48 45 42 41 41 41 38 37 37 34 34 33
26 25 25 26 28 31 35 37 39 40 41 42 43 45 46 46 48 51 52 53 54 54 55 56 56 57 55 54 55 54 50 51 49 45 41 40 41 40 38 37 37 34 35
22 23 23 23 25 26 27 30 33 35 38 39 40 42 44 46 47 48 50 53 55 57 58 58 58 57 55 54 53 52 50 49 50 46 42 41 42 41 42 39 40 38 36
21 21 21 22 22 23 24 26 28 30 32 33 34 34 35 38 43 47 50 52 53 52 52 53 54 55 57 55 53 51 51 50 50 50 45 42 43 43 43 42 40 41 38
20 19 20 19 19 20 21 22 22 23 23 25 27 29 32 36 39 42 45 48 50 50 50 50 51 53 55 54 54 52 52 52 50 51 50 46 44 44 43 43 41 42 39
19 18 17 14 11 9 9 9 10 13 17 19 19 23 25 30 36 38 39 40 40 41 42 43 44 45 50 52 52 53 55 54 52 51 51 50 47 45 44 44 42 41 40
21 21 17 15 11 5 3 4 3 6 6 8 10 10 18 20 18 19 21 25 30 34 35 35 34 36 40 47 50 52 54 55 52 50 51 50 49 46 44 44 41 42 41
22 20 19 19 16 9 7 9 10 11 12 12 16 14 15 15 14 17 17 16 17 19 22 26 28 29 29 36 44 48 52 51 49 50 47 46 48 48 46 43 34 37 38
26 21 18 15 15 13 12 12 11 15 17 13 17 11 16 17 19 16 21 25 21 24 21 24 24 28 35 33 34 37 39 42 44 43 42 41 44 44 45 45 42 39 38
29 25 23 18 16 16 18 18 20 19 18 18 18 19 18 21 18 18 20 22 16 18 24 22 22 21 29 34 36 37 38 39 40 41 37 36 34 38 41 41 39 40 39
Wind_Direction
255 238 234 238 239 234 235 237 236 237 240 243 242 241 236 237 237 235 236 238 240 243 246 249 257 276 297 312 325 333 330 322 309 301 298 292 290 288 290 297 302 304 292
258 256 245 235 231 229 232 236 238 232 236 237 237 236 235 239 243 241 241 242 244 247 247 251 256 265 281 296 307 320 326 326 317 305 299 298 291 287 287 288 297 305 302
269 265 258 255 241 231 232 235 240 239 238 235 235 235 233 232 240 243 243 244 244 246 247 247 250 260 271 283 295 304 312 319 318 309 303 299 295 289 287 286 289 292 309
272 270 265 259 255 254 246 245 245 244 244 244 242 234 230 229 233 235 240 240 239 240 242 242 249 253 262 273 284 292 299 307 309 305 302 300 301 292 285 287 287 288 301
269 267 264 263 260 255 249 251 254 247 243 246 247 248 240 241 228 235 243 231 236 229 236 240 247 251 258 268 279 284 291 293 294 298 294 297 300 294 283 284 288 290 292
267 267 265 266 265 260 252 248 246 251 255 248 241 246 253 246 237 237 245 244 243 225 231 239 244 249 254 265 272 278 283 284 285 288 286 289 297 297 284 278 280 282 282
273 272 270 266 261 263 261 254 255 252 251 250 254 258 247 245 242 240 244 242 249 239 233 231 244 242 252 261 270 275 275 279 281 280 278 278 286 295 289 280 274 276 278
273 270 268 270 269 265 261 256 251 251 255 255 252 248 252 246 240 237 241 236 234 234 235 230 236 242 251 262 262 269 268 270 272 277 275 271 275 289 285 271 273 276 275
273 271 270 267 265 268 266 264 259 252 249 253 252 254 256 248 250 238 230 231 232 231 230 227 229 239 249 255 258 258 261 265 268 271 272 269 270 282 280 268 267 270 273
277 273 270 268 268 263 265 265 263 266 260 253 249 248 259 261 242 208 211 221 224 217 222 221 222 229 237 243 250 256 260 262 260 262 269 270 269 277 280 267 257 267 269
273 271 270 267 267 267 263 262 260 259 261 263 255 250 251 251 248 248 259 237 209 221 224 225 223 231 238 244 247 247 256 255 255 258 261 266 268 271 280 270 253 254 259
274 271 270 268 266 268 263 256 254 250 254 254 252 254 251 255 249 240 235 230 222 218 230 230 239 228 228 230 236 246 249 249 253 258 259 261 264 269 274 271 258 247 249
279 276 272 269 266 264 260 256 250 247 245 251 252 248 243 233 241 237 243 248 243 240 224 224 228 224 223 228 240 241 243 241 247 252 259 262 260 260 266 271 265 255 251
278 273 270 268 265 262 259 254 251 249 246 244 249 250 246 240 231 233 226 225 227 228 229 229 226 225 227 230 235 237 240 243 246 250 253 258 259 257 256 265 266 258 251
277 274 271 268 264 260 258 255 253 251 249 248 247 248 246 246 242 234 232 230 229 229 232 232 232 232 231 235 240 239 241 241 246 251 250 252 256 260 257 256 263 259 253
286 277 271 267 264 262 259 255 253 253 251 249 247 245 244 245 246 243 240 245 243 239 234 234 235 235 235 238 241 245 244 244 243 245 248 247 249 252 258 252 253 257 252
293 289 282 272 263 260 260 258 256 251 249 249 248 246 245 244 244 245 246 242 240 241 248 247 245 245 242 242 241 241 245 244 245 243 245 243 246 247 251 253 247 249 249
296 293 287 280 273 267 261 258 256 254 251 248 246 246 246 245 244 244 244 245 242 240 240 240 241 242 242 241 243 242 239 240 241 243 240 242 242 244 244 246 246 244 248
307 300 290 282 273 271 268 263 259 256 256 254 251 248 245 246 246 242 242 242 242 241 240 239 240 241 240 238 239 241 238 237 239 239 240 239 241 241 242 241 243 242 241
317 308 296 287 280 270 267 266 264 261 258 256 255 252 249 245 242 241 242 245 245 244 242 242 242 240 240 238 235 235 237 236 236 237 238 237 239 240 241 239 239 242 239
335 323 309 298 288 277 268 266 265 262 258 257 256 255 251 248 242 238 238 241 244 246 246 244 242 241 239 236 234 232 231 232 234 234 236 237 236 238 239 239 236 238 235
359 356 349 333 318 300 282 272 264 259 256 254 253 251 248 247 246 246 243 243 245 246 246 245 244 240 237 232 230 230 230 230 229 229 229 233 234 233 236 237 235 233 233
354 359 1 4 1 340 308 277 243 267 259 240 241 259 244 242 243 240 237 237 240 242 243 243 239 234 230 228 227 227 227 228 227 229 228 228 230 231 230 232 232 232 230
357 353 355 355 350 343 320 274 255 257 255 274 249 248 253 245 238 239 235 235 246 234 227 231 228 223 221 224 226 227 226 224 226 228 229 227 229 228 226 224 220 228 227
4 355 344 337 329 321 305 293 292 289 269 267 265 257 248 249 247 254 250 241 230 232 241 235 236 227 217 214 218 215 217 219 221 223 225 221 221 223 221 222 217 222 228
22 16 12 0 342 323 308 296 288 282 284 271 260 255 239 237 252 248 231 228 228 226 231 229 218 217 208 209 203 198 201 206 210 211 214 209 208 210 213 217 219 225 224